Satellite: CO-57
Catalog number: 27848
Epoch time:      09126.55070982
Element set:    0520
Inclination:      098.7157 deg
RA of node:       135.3660 deg
Eccentricity:    0.0008913
Arg of perigee:   270.1663 deg
Mean anomaly:     089.8507 deg
Mean motion:   14.20437785 rev/day
Decay rate:        3.7e-07 rev/day^2
Epoch rev:           30331
Checksum:              318

Satellite: AO-51
Catalog number: 28375
Epoch time:      09127.54196770
Element set:     382
Inclination:      098.0541 deg
RA of node:       139.5152 deg
Eccentricity:    0.0082923
Arg of perigee:   248.8730 deg
Mean anomaly:     110.3584 deg
Mean motion:   14.40640558 rev/day
Decay rate:        5.0e-08 rev/day^2
Epoch rev:           25510
Checksum:              300

Satellite: CO-56
Catalog number: 28941
Epoch time:      09127.48727532
Element set:      56
Inclination:      098.1344 deg
RA of node:       294.4461 deg
Eccentricity:    0.0095721
Arg of perigee:   284.8835 deg
Mean anomaly:     074.1864 deg
Mean motion:   15.79901969 rev/day
Decay rate:     3.4446e-04 rev/day^2
Epoch rev:           18081
Checksum:              357

Satellite: GENESAT1
Catalog number: 29655
Epoch time:      09126.96834257
Element set:    0702
Inclination:      040.0244 deg
RA of node:       081.4304 deg
Eccentricity:    0.0001504
Arg of perigee:   244.8582 deg
Mean anomaly:     115.2144 deg
Mean motion:   15.64717605 rev/day
Decay rate:      9.891e-05 rev/day^2
Epoch rev:           13601
Checksum:              282

Satellite: CP3
Catalog number: 31129
Epoch time:      09127.79410475
Element set:     905
Inclination:      097.9931 deg
RA of node:       182.7995 deg
Eccentricity:    0.0103668
Arg of perigee:   050.8505 deg
Mean anomaly:     310.1838 deg
Mean motion:   14.52126845 rev/day
Decay rate:        1.9e-07 rev/day^2
Epoch rev:           10902
Checksum:              309

Satellite: CO-65
Catalog number: 32785
Epoch time:      09127.66797517
Element set:     358
Inclination:      097.9469 deg
RA of node:       191.9624 deg
Eccentricity:    0.0015281
Arg of perigee:   158.6808 deg
Mean anomaly:     201.5043 deg
Mean motion:   14.81475444 rev/day
Decay rate:        9.0e-08 rev/day^2
Epoch rev:            5544
Checksum:              344

Satellite: KKS-1
Catalog number: 33493
Epoch time:      09127.75518221
Element set:     359
Inclination:      098.0529 deg
RA of node:       239.7965 deg
Eccentricity:    0.0020483
Arg of perigee:   016.5004 deg
Mean anomaly:     343.6878 deg
Mean motion:   14.80659333 rev/day
Decay rate:       2.42e-06 rev/day^2
Epoch rev:            1548
Checksum:              314

Satellite: SOHLA-1
Catalog number: 33496
Epoch time:      09127.73438770
Element set:     322
Inclination:      098.0342 deg
RA of node:       237.6815 deg
Eccentricity:    0.0007818
Arg of perigee:   057.0356 deg
Mean anomaly:     303.1608 deg
Mean motion:   14.69431829 rev/day
Decay rate:        8.0e-08 rev/day^2
Epoch rev:            1533
Checksum:              299

/EX
SB KEPS @ AMSAT  $ORB09127.W
Orbital Elements  09127.WEATHER

HR AMSAT ORBITAL ELEMENTS FOR WEATHER SATELLITES
FROM WA5QGD FORT WORTH,TX May 7, 2009
Send Subscribe/unsubscribe to KEPS at 
http://www.amsat.org/mailman/listinfo/keps
BID: ORB09127.W
TO ALL RADIO AMATEURS BT

Satellite: NOAA-10
Catalog number: 16969
Epoch time:      09126.58910385
Element set:    0603
Inclination:      098.6941 deg
RA of node:       153.4582 deg
Eccentricity:    0.0011815
Arg of perigee:   322.1948 deg
Mean anomaly:     037.8385 deg
Mean motion:   14.27385432 rev/day
Decay rate:       -1.9e-07 rev/day^2
Epoch rev:           17757
Checksum:              330

Satellite: NOAA-11
Catalog number: 19531
Epoch time:      09126.76767840
Element set:    0612
Inclination:      098.7829 deg
RA of node:       217.3599 deg
Eccentricity:    0.0011086
Arg of perigee:   223.3105 deg
Mean anomaly:     136.7202 deg
Mean motion:   14.14893759 rev/day
Decay rate:      -2.78e-06 rev/day^2
Epoch rev:           06366
Checksum:              325

Satellite: NOAA-12
Catalog number: 21263
Epoch time:      09127.82023306
Element set:     108
Inclination:      098.7715 deg
RA of node:       135.8631 deg
Eccentricity:    0.0011369
Arg of perigee:   262.8412 deg
Mean anomaly:     097.1956 deg
Mean motion:   14.25577310 rev/day
Decay rate:        8.2e-07 rev/day^2
Epoch rev:           93468
Checksum:              301

Satellite: MET-3/5
Catalog number: 21655
Epoch time:      09126.97395975
Element set:    0596
Inclination:      082.5485 deg
RA of node:       235.6006 deg
Eccentricity:    0.0012582
Arg of perigee:   287.4341 deg
Mean anomaly:     072.5405 deg
Mean motion:   13.17018674 rev/day
Decay rate:        5.1e-07 rev/day^2
Epoch rev:           85220
Checksum:              315

Satellite: MET-2/21
Catalog number: 22782
Epoch time:      09126.74328370
Element set:    0451
Inclination:      082.5495 deg
RA of node:       214.8765 deg
Eccentricity:    0.0024052
Arg of perigee:   102.3790 deg
Mean anomaly:     258.0069 deg
Mean motion:   13.83636589 rev/day
Decay rate:       -3.6e-07 rev/day^2
Epoch rev:           79187
Checksum:              324

